Starlink 30807

operational
NORAD ID: 58192 Int'l Des: 2023-167 Owner: SPXS Country: US Constellation: starlink
LEOCIRCULAR

About Starlink 30807

Description loading...

Live Position

Loading 3D Globe...

Upcoming Passes

Altitude History

Altitude vs Time

uPlot chart will show altitude changes over time

Two-Line Element Set

1 58192U 23167T 26034.25267955 -.00012452 00000-0 -90828-3 0 9996
2 58192 43.0026 333.1736 0001148 276.4102 83.6610 15.02538690125779
Epoch: Feb 3, 2026 • Age: 16 hours

Current Status

Altitude 562.7 km
Velocity 7.59 km/s
Sub-Earth Point 41.82°N, 67.42°W
Launch Date Oct 30, 2023
Age 2.2 years
Type internet

Technical Details

Classification Payload
Mass 730.00 kg
Dry Mass 700.00 kg
Total Mass 730.00 kg
Length 0.30 m
Diameter 4.10 m
Span 29.00 m
Shape Box + pan
Manufacturer SPXS
Bus Type Starlink V2M
Phase Status In Orbit
Owner/State SPXS/US

Large Constellations

Loading constellations...